Regional Weather Roundup
Issued by NWS

Home | Current Version | Previous Version | Graphics & Text | Print | Product List | Glossary On
Versions: 1 2 3 4 5 6 7 8 9 10 11 12 13 14 15 16 17 18 19 20 21 22 23 24 25 26 27 28 29 30 31 32 33 34 35 36 37 38 39 40 41 42 43 44 45 46 47 48 49 50
000
ASUS43 KFSD 291210
RWRSD

WEATHER ROUNDUP FOR SOUTH DAKOTA
NATIONAL WEATHER SERVICE SIOUX FALLS SD
700 AM CDT MON JUN 29 2015

NOTE: "FAIR" INDICATES FEW OR NO CLOUDS BELOW 12,000 FEET WITH NO
SIGNIFICANT WEATHER AND/OR OBSTRUCTIONS TO VISIBILITY.


SDZ001>005-009-010-012>017-291300-
NORTHWEST AND NORTH CENTRAL SOUTH DAKOTA

CITY           SKY/WX    TMP DP  RH WIND       PRES   REMARKS
BUFFALO          N/A     63  56  78 NE5       30.00R
FAITH            N/A     65  56  72 SW9       30.03S
MOBRIDGE       CLEAR     63  60  90 N5        29.97R
$$

SDZ012>016-024>037-041>051-057-063-072>074-291300-
SOUTHWEST AND SOUTH CENTRAL SOUTH DAKOTA

CITY           SKY/WX    TMP DP  RH WIND       PRES   REMARKS
RAPID CTY ARPT CLOUDY    67  57  70 NW7       30.07F
PIERRE         CLEAR     60  58  92 W6        30.00R
CUSTER         CLOUDY    56  54  93 CALM      30.26F THUNDER
ELLSWORTH AFB  CLOUDY    66  58  74 W3        30.07R
PHILIP         CLEAR     61  59  93 W7        30.04R
PINE RIDGE     LGT RAIN  65  60  84 N13       30.15S
SPEARFISH      FAIR      64  54  68 S16       30.11F
WINNER         FAIR      61  51  70 SW3       30.03R
$$

SDZ004>011-016>023-039-040-291300-
NORTHEAST SOUTH DAKOTA

CITY           SKY/WX    TMP DP  RH WIND       PRES   REMARKS
ABERDEEN       MOSUNNY   63  59  87 CALM      29.93S FOG
WATERTOWN      SUNNY     65  60  84 NW5       29.93R
BROOKINGS      SUNNY     61  55  82 CALM      29.95S
SISSETON         N/A     65  59  81 N5        29.88R
$$

SDZ017-020-022-023-036>040-048>070-291300-
SOUTHEAST SOUTH DAKOTA

CITY           SKY/WX    TMP DP  RH WIND       PRES   REMARKS
SIOUX FALLS    SUNNY     63  59  87 CALM      29.93R
HURON          CLEAR     60  58  92 NW3       29.95R FOG
CHAMBERLAIN    PTCLDY    57  56  94 W3        30.00R
MITCHELL       CLEAR     62  58  86 W5        29.96R
YANKTON        CLEAR     64  57  77 W8        29.94R
$$

ABBREVIATIONS USED IN REMARKS
   TC - TEMPERATURE IN CELSIUS
  WCI - WIND CHILL INDEX
   HX - HEAT INDEX
  VSB - VISIBILITY



USA.gov is the U.S. government's official web portal to all federal, state and local government web resources and services.